Regional Weather Roundup
Issued by NWS

Home | Current Version | Previous Version | Text Only | Print | Product List | Glossary On
Versions: 1 2 3 4 5 6 7 8 9 10 11 12 13 14 15 16 17 18 19 20 21 22 23 24 25 26 27 28 29 30 31 32 33 34 35 36 37 38 39 40 41 42 43 44 45 46 47 48 49 50
000
ASUS46 KLOX 051413
RWRCA

SOUTHERN CALIFORNIA WEATHER ROUNDUP
NATIONAL WEATHER SERVICE OXNARD CALIFORNIA
700 AM PDT SUN JUL 05 2015

NOTE: "FAIR" INDICATES FEW OR NO CLOUDS BELOW 12,000 FEET WITH NO
SIGNIFICANT WEATHER AND/OR OBSTRUCTIONS TO VISIBILITY.

  -  STATIONS PRECEEDED BY AN ASTERISK (*) ARE NOT NWS OR FAA
     STATIONS AND ARE NOT SUBJECT TO NWS AND FAA QUALITY CONTROL.

CAZ041-042-087-051500-
LA AND ORANGE COUNTY COASTAL AREAS


CITY           SKY/WX    TMP DP  RH WIND       PRES   REMARKS
L.A. DOWNTOWN  CLOUDY    66  58  75 CALM      29.95R
L.A. AIRPORT   CLOUDY    64  60  87 W7        29.97R
LONG BEACH     CLOUDY    67  59  75 S3        29.96R

CITY           SKY/WX    TMP DP  RH WIND       PRES   REMARKS
AVALON           N/A     63 N/A N/A SE2         N/A
FULLERTON      CLOUDY    67  59  75 SW3       29.96R
*GETTY CENTER    N/A     59  55  88 S2          N/A
HAWTHORNE      CLOUDY    67  59  75 W5        29.96R
*LOS ALAMITOS  CLOUDY    65  60  83 VRB2      29.96R
*REDONDO BEACH   N/A     64  60  85 CALM      29.97R
SANTA ANA      CLOUDY    65  59  81 SW3       29.96R
STA MONICA APT CLOUDY    60  59  96 SW3       29.97R
TORRANCE       CLOUDY    66  63  88 VRB7      29.97
*UCLA            N/A     64  55  72 CALM      29.95R

$$

CAZ547-548-048-051500-
LA COUNTY VALLEYS AND INLAND EMPIRE


CITY           SKY/WX    TMP DP  RH WIND       PRES   REMARKS
BURBANK        CLOUDY    64  58  80 CALM      29.96R HAZE
VAN NUYS       CLOUDY    63  58  83 S5        29.97R HAZE

CITY           SKY/WX    TMP DP  RH WIND       PRES   REMARKS
CORONA AIRPORT MOSUNNY   64  59  84 CALM      29.97R
*CHATSWORTH      N/A     63  58  84 CALM      29.95R
CHINO          CLOUDY    66  60  81 W5        29.98R
MARCH AFB      PTSUNNY   61  61 100 NW3       29.97R FOG
*NORTHRIDGE      N/A     63  57  82 SE1         N/A
ONTARIO        CLOUDY    64  58  80 W3        29.97R HAZE
*PASADENA        N/A     64  61  88 CALM        N/A
POMONA         CLOUDY    63  57  82 CALM      30.00  FOG
RIVERSIDE      CLOUDY    64  59  83 W5        29.97R HAZE
SAN BERNARDINO CLOUDY    61  54  77 SW3       29.98  HAZE
*WHITEMAN AP   NOT AVBL
*WOODLAND HILL   N/A     63  57  82 SE2         N/A

$$

CAZ054-055-051500-
LA AND SAN BERNARDINO COUNTY MOUNTAINS


CITY           SKY/WX    TMP DP  RH WIND       PRES   REMARKS
*BIG BEAR AIRP SUNNY     52  41  66 CALM      30.26S
SANDBERG       SUNNY     68  50  52 SW8       30.09R

$$

CAZ028-029-059-060-099-051500-
ANTELOPE VALLEY AND SURROUNDING AREAS


CITY           SKY/WX    TMP DP  RH WIND       PRES   REMARKS
LANCASTER      SUNNY     73  49  42 W5        29.95R
PALMDALE       SUNNY     74  45  35 S6        29.96R

CITY           SKY/WX    TMP DP  RH WIND       PRES   REMARKS
29 PALMS       SUNNY     80  46  30 CALM      29.98R
BARSTOW/DAGGET SUNNY     80  46  30 W12       29.91R
BISHOP         SUNNY     66  51  58 NW6       30.08R
CHINA LAKE     SUNNY     81  47  30 SW6       29.92R
EDWARDS AFB    SUNNY     74  49  40 S7        29.93R
MOJAVE         FAIR      77  50  38 CALM      29.97R
NEEDLES        MOSUNNY   94  56  27 SE6       29.83R HX  92
VICTORVILLE    SUNNY     75  45  33 CALM      29.98R

$$

CAZ039-040-051500-
VENTURA AND SANTA BARBARA COUNTY COAST


CITY           SKY/WX    TMP DP  RH WIND       PRES   REMARKS
CAMARILLO      CLOUDY    62  59  90 W8        29.97R FOG
OXNARD AIRPORT CLOUDY    63  59  87 W8        29.97R FOG
*POINT MUGU    CLOUDY    65  59  81 NW5       29.98R
SBA APT/GOLETA CLOUDY    62  59  90 SE6       29.97R
*SANTA BARBARA   N/A     62  57  84 CALM      30.05S
*VENTURA         N/A     62  60  93 CALM      29.59R

$$

CAZ044-045-051500-
VENTURA COUNTY VALLEYS


CITY           SKY/WX    TMP DP  RH WIND       PRES   REMARKS
*SIMI VALLEY     N/A     61  58  91 CALM      29.93R
*OJAI            N/A     59  57  91 CALM      29.92R
*FILLMORE        N/A     62  59  89 CALM      29.87S

$$

CAZ053-051500-
VENTURA COUNTY MOUNTAINS


CITY           SKY/WX    TMP DP  RH WIND       PRES   REMARKS

$$

CAZ034-035-036-051500-
CENTRAL COAST AND SANTA YNEZ VALLEY


CITY           SKY/WX    TMP DP  RH WIND       PRES   REMARKS
SAN LUIS OBISP CLOUDY    61  57  87 SW3       29.98R
SANTA MARIA    CLOUDY    61  59  93 CALM      29.98R FOG

CITY           SKY/WX    TMP DP  RH WIND       PRES   REMARKS
*CAL POLY SLO    N/A     61  59  94 CALM        N/A
*LOMPOC        CLOUDY    61  54  77 CALM      29.99R
*PISMO BEACH     N/A     60  59  95 SW3       29.99R
*SANTA YNEZ    CLOUDY    59  55  88 CALM      29.98S

$$

CAZ037-038-051-051500-
SAN LUIS OBISPO COUNTY INTERIOR AND CUYAMA VALLEY


CITY           SKY/WX    TMP DP  RH WIND       PRES   REMARKS
*CUYAMA          N/A     64  52  65 NW1       29.85R
PASO ROBLES    CLOUDY    59  55  87 W3        29.96R

$$

CAZ032-033-061-051500-
SOUTHERN DESERTS


CITY           SKY/WX    TMP DP  RH WIND       PRES   REMARKS
BLYTHE         SUNNY     88  63  43 S8        29.82R
IMPERIAL       SUNNY     81  69  67 E7        29.79R
PALM SPRINGS   SUNNY     83  58  42 NW7       29.84R
THERMAL        SUNNY     83  60  45 NE5       29.79R

$$

ELSEWHERE ACROSS THE WESTERN UNITED STATES AND MEXICO


CITY           SKY/WX    TMP DP  RH WIND       PRES   REMARKS
DENVER, CO     MOSUNNY   74  52  46 SW13      30.01R
GRAND CANYON,  MOSUNNY   65  55  70 CALM      30.27R
HONOLULU, HI   PTCLDY    75  66  73 NW5       29.94F
KAHULUI, MAUI  CLEAR     75  70  83 NE8       29.95F
LAKE TAHOE, CA SUNNY     48  43  82 S3        30.22R
LAS VEGAS, NV  MOSUNNY   89  47  23 S10       29.86R
MAMMOTH LAKES, FAIR      50  45  81 N3        30.28S
MEXICO CITY, M CLOUDY    59  52  77 SE2       30.41
PHOENIX, AZ    CLOUDY    89  60  37 W7        29.88R
PORTLAND, OR   MOSUNNY   69  57  65 W5        29.82S
RENO, NV       MOSUNNY   61  51  70 CALM      30.13R
SALT LAKE CITY CLOUDY    76  62  62 NW6       30.02R
SAN DIEGO, CA  CLOUDY    66  57  72 NW3       29.98R
SAN FRANCISCO, MOSUNNY   60  56  86 W6        29.93R
SAN JOSE, CA   MOSUNNY   61  55  81 SE9       29.93R
SEATTLE, WA    MOSUNNY   66  51  58 CALM      29.84R
TIJUANA, MEX   CLOUDY    64  55  72 W7        29.98R

$$

STATION/POSITION TIME  TEMP    WIND        PRES    VSBY  WAVE
                       AIR SEA DIR/SP/G                  HT/PER
                 (UTC) (F)     (DEG/KT/KT) (MB)    (MI)  (FT/S)
POINT ARGUELLO B NOT AVBL
WEST SANTA BARBA 1350   60 60  330/  6/  8 1014.9R         3/14
POINT CONCEPTION NOT AVBL
EAST SANTA BARBA 1400   61 62  180/  8/ 10 1015.4R
SANTA MONICA BAY 1350   63 68  250/  6/  8 1015.0R         2/15


USA.gov is the U.S. government's official web portal to all federal, state and local government web resources and services.